Temp_Advection
nan nan nan nan nan nan nan nan nan nan nan nan nan nan nan nan nan nan nan nan nan nan nan nan nan nan nan nan nan nan nan nan nan nan nan nan nan nan nan nan nan nan nan nan
nan -0 0 0 0 -0 0 -0 0 -0 0 -0 -0 -1 0 0 0 0 1 0 0 0 -0 0 0 0 0 0 0 0 0 0 0 0 0 0 -0 -0 0 0 -0 -0 -0 nan
nan 0 0 0 -0 -0 -0 1 0 -0 -0 0 -0 -1 0 0 0 0 -0 0 1 1 1 0 0 0 1 1 1 0 0 0 0 0 0 0 0 0 0 0 -0 -0 -0 nan
nan -0 -0 0 -0 -0 0 0 0 1 -0 -0 -0 -1 -0 0 0 -0 -0 0 1 1 0 1 0 1 1 1 0 0 0 0 0 0 0 0 0 0 0 0 0 0 -0 nan
nan 0 0 0 0 -0 0 -0 0 0 0 0 0 -0 0 -0 -0 0 0 0 1 1 0 1 1 1 1 0 0 0 0 0 0 0 0 0 0 0 0 0 0 0 0 nan
nan -0 0 -0 -0 -0 1 0 0 0 0 0 0 -0 -0 -0 0 -0 0 0 0 0 1 0 1 0 0 0 0 0 0 0 0 0 0 0 0 0 0 0 0 0 0 nan
nan 0 -0 -0 0 -0 -0 0 -0 -0 -0 0 -0 -0 -1 0 0 0 -0 0 -0 0 0 0 0 0 0 0 0 0 0 0 0 0 0 0 0 0 0 0 0 0 0 nan
nan -0 -0 -0 -0 -0 -0 -0 -0 0 0 -0 -0 -1 0 -0 -0 -0 -0 0 -0 0 0 0 0 0 0 0 0 0 0 0 0 0 0 0 0 0 0 0 0 0 0 nan
nan -0 -0 -0 -0 -0 0 0 -0 -0 0 -0 -0 -0 1 0 -0 -0 -0 -0 -0 0 0 0 0 0 0 0 0 0 0 0 0 0 0 0 0 0 0 0 0 0 0 nan
nan 0 -0 0 -0 0 -0 0 0 -0 -0 -0 -0 -0 0 0 -0 -0 -0 -0 -0 0 0 0 0 0 -0 -0 0 0 0 0 0 0 0 0 0 0 0 0 0 0 0 nan
nan 0 -0 -0 -0 0 0 -0 0 -0 -0 -0 0 0 -0 0 0 0 -0 -0 0 0 0 0 0 0 0 0 0 0 0 0 0 0 0 0 0 0 0 0 0 0 0 nan
nan -0 -0 -0 -0 -0 -0 -0 -0 -0 0 -0 -0 0 -0 -0 -0 0 -0 -0 -0 0 1 0 0 0 0 0 0 0 0 0 0 0 0 0 0 0 0 0 0 0 0 nan
nan -0 -0 -0 -0 -0 -0 0 0 0 -0 -1 -0 0 -0 -0 -0 -0 0 -0 -0 0 1 1 0 0 0 0 0 -0 0 0 0 0 0 0 0 0 0 0 0 0 -0 nan
nan -0 -0 -0 -0 -0 -0 -0 -0 -0 -0 -0 -0 1 -0 -0 -0 -0 -0 0 -0 -0 0 1 1 0 0 0 -0 -0 -0 -0 -0 -0 -0 -0 -0 -0 -0 -0 -0 -0 -0 nan
nan -0 0 -0 0 0 -0 -0 -0 -0 -1 0 0 1 -0 0 1 0 -0 -0 -0 0 0 0 0 0 0 0 -0 -0 -0 -0 -0 -0 -0 -0 -0 -0 -0 -0 -0 -0 -0 nan
nan -0 -0 -0 0 -0 -0 -0 -0 -0 0 0 0 -0 1 0 0 0 0 0 -0 -0 0 0 0 0 0 0 -0 -0 -0 -0 -0 -0 -0 -0 -0 -0 -0 -0 -0 -0 -0 nan
nan 0 -0 0 0 -0 -0 0 1 0 0 -0 0 0 0 0 0 0 0 -0 0 0 0 0 0 0 0 -0 -0 -0 -0 -0 -0 -0 -0 -0 -0 -0 -0 -0 -0 -0 -0 nan
nan 0 -0 -0 -0 -0 -0 -0 -0 -0 -0 1 0 0 0 -0 -0 0 0 0 0 0 0 0 0 0 0 0 0 -0 -0 -0 -0 -0 -0 -0 -0 -0 -0 -0 0 0 0 nan
nan -0 -0 0 -0 -0 0 -0 0 0 -0 0 0 0 -0 0 -0 -0 0 0 0 -0 -0 0 0 0 0 0 0 -0 -0 -0 -0 -0 -0 -0 -0 -0 -0 -0 -0 0 0 nan
nan -0 0 0 -0 -0 -0 -0 0 -0 0 -0 0 0 -0 -0 -0 -0 -0 0 0 0 0 0 0 0 0 0 -0 -0 -0 -0 -0 -0 -0 -0 -0 -0 -0 -0 -0 -0 0 nan
nan -0 -0 -0 -0 -0 0 -0 0 -0 -0 -0 0 0 0 0 -0 0 0 0 0 0 0 0 0 0 0 -0 -0 -0 -0 -0 -0 -0 -0 -0 -0 -0 -0 -0 -0 0 0 nan
nan -0 -0 0 -0 0 0 0 -0 -0 0 0 -0 0 0 0 0 0 0 0 0 0 0 0 0 0 0 -0 -0 -0 -0 -0 -0 -0 -1 -1 -0 -0 -1 -1 -1 0 0 nan
nan -0 -0 0 0 -0 0 -0 0 0 -0 -0 0 0 -0 -0 0 0 0 0 0 0 0 0 0 0 0 0 0 -0 -0 -0 -0 -0 -0 -1 -1 0 0 -0 -1 -1 -1 nan
nan 0 -0 0 0 0 0 0 0 0 0 0 0 0 0 0 0 0 0 0 0 0 0 0 -0 -0 0 0 0 0 0 -0 -0 -0 0 -0 -1 -1 -0 -0 -0 -0 -0 nan
nan -0 -0 0 0 0 -0 -0 0 0 0 0 0 0 0 0 0 0 0 0 0 0 0 0 -0 -0 -0 -0 -0 -0 -0 -0 -0 -0 0 0 -0 -0 -0 -0 -0 0 -0 nan
nan nan nan nan nan nan nan nan nan nan nan nan nan nan nan nan nan nan nan nan nan nan nan nan nan nan nan nan nan nan nan nan nan nan nan nan nan nan nan nan nan nan nan nan
Wind_Speed
3 6 11 10 10 7 10 13 15 4 2 5 9 7 9 7 6 8 13 15 16 16 15 18 19 19 18 18 16 14 12 9 8 6 6 5 5 4 4 4 4 5 6 7
5 9 6 2 5 6 10 14 10 3 1 3 2 10 10 11 10 16 14 17 18 16 18 20 19 19 20 18 17 16 13 10 8 7 7 7 7 6 6 5 5 4 5 6
8 4 2 3 6 9 6 15 9 4 5 2 4 11 7 4 6 7 11 14 16 18 18 21 20 19 19 18 17 15 12 10 9 8 7 8 7 7 6 6 5 5 5 6
2 1 3 3 7 5 9 2 7 10 10 5 1 6 6 5 6 7 11 11 14 16 16 19 20 19 18 18 16 14 12 11 9 8 8 9 8 8 8 7 7 6 6 6
2 1 4 4 1 2 3 2 5 3 3 4 3 3 3 2 6 6 9 9 11 13 15 18 18 18 18 16 15 13 11 11 10 9 9 9 8 8 8 8 8 8 7 7
2 1 2 3 2 1 8 7 5 3 1 3 3 2 4 5 2 4 2 5 5 10 15 15 17 17 16 15 13 12 12 11 10 9 9 8 8 8 8 8 9 9 9 9
2 2 2 2 2 2 2 4 3 2 3 2 2 3 8 3 3 2 2 3 5 9 13 16 17 17 15 13 13 12 11 10 10 9 9 8 8 8 8 9 9 10 10 10
4 3 2 2 3 2 4 2 2 5 5 4 1 6 3 2 3 3 1 6 9 11 12 14 14 13 12 12 11 10 9 9 9 10 10 10 9 8 8 9 10 10 11 12
3 1 1 1 3 3 4 5 2 4 1 2 3 5 7 4 3 4 5 9 11 11 11 11 11 10 10 10 9 9 9 9 10 10 10 9 9 9 10 10 10 11 12 12
1 1 0 1 2 2 2 2 2 1 5 4 4 4 4 5 9 6 7 9 10 9 10 9 8 8 9 9 10 10 9 9 10 10 11 11 11 11 11 11 11 12 12 13
4 3 2 2 5 4 3 3 1 2 2 2 2 3 1 3 4 7 8 9 9 9 8 7 5 5 6 8 9 10 10 10 11 11 11 10 10 10 11 11 11 12 13 14
3 2 3 3 2 1 2 2 3 4 4 1 2 2 3 4 4 6 10 10 9 9 9 9 8 7 5 3 4 7 8 9 10 10 9 9 9 10 11 11 12 12 13 14
3 3 2 3 3 2 5 5 2 2 1 5 3 2 1 3 5 6 11 11 10 11 11 11 10 9 9 8 6 3 2 4 5 6 7 8 9 9 9 10 11 12 12 13
3 2 4 2 2 2 4 6 8 7 4 5 9 8 3 5 6 9 11 12 12 11 11 11 10 10 10 9 10 10 9 7 4 1 1 3 5 6 8 9 11 12 14 15
2 4 3 6 5 4 5 6 12 12 11 7 2 7 1 2 7 11 13 14 13 12 12 11 10 10 9 9 8 8 7 6 5 4 4 5 6 8 10 13 15 17 19 21
1 2 1 3 2 5 7 11 12 15 13 15 11 14 8 1 4 12 16 17 16 14 12 11 10 9 8 6 6 5 5 5 6 7 8 9 10 12 14 16 18 20 21 23
3 3 2 3 1 4 9 15 16 7 6 9 10 5 4 5 5 10 15 16 15 15 13 11 10 8 5 4 4 3 3 5 7 10 13 16 18 20 23 24 26 28 29 30
4 3 2 2 2 5 3 2 1 11 4 11 3 4 3 2 2 4 13 16 15 14 13 11 9 6 4 2 0 2 5 9 12 15 18 21 24 27 29 32 34 35 35 35
2 2 2 3 4 8 4 4 5 7 4 4 6 6 3 6 6 5 10 11 12 13 12 10 8 5 2 2 4 6 10 14 18 20 24 26 29 32 34 35 36 37 37 39
1 1 4 2 4 4 3 2 1 2 4 4 3 7 10 8 3 4 13 14 15 14 11 9 6 2 3 6 7 10 14 18 22 25 28 30 32 33 34 35 36 38 38 39
3 3 10 8 5 7 2 5 3 3 3 5 5 8 12 3 2 8 14 14 13 11 9 6 4 3 5 7 9 14 19 22 26 29 31 33 34 35 37 38 38 37 34 32
7 7 5 4 5 9 6 5 5 4 6 8 7 8 10 6 8 11 14 14 13 10 6 5 5 5 6 11 15 20 23 26 29 32 34 36 37 36 37 37 39 36 31 31
4 5 3 8 3 1 6 0 7 7 7 7 8 10 12 11 11 14 14 13 10 7 7 6 5 7 12 16 20 24 26 29 33 35 36 36 36 35 31 28 29 30 29 29
5 6 4 2 5 7 9 8 7 9 7 7 7 9 12 12 12 14 14 9 8 8 6 6 9 13 17 21 24 27 29 31 33 35 34 31 29 30 27 25 25 26 29 31
1 9 5 5 3 3 9 11 12 9 7 7 8 9 10 10 10 9 10 9 8 7 7 10 14 18 21 24 26 28 30 32 34 33 31 27 23 24 26 26 25 26 28 28
8 9 6 6 6 3 5 11 13 11 11 10 12 13 11 10 10 10 10 8 6 7 10 13 18 21 23 25 27 28 29 29 29 27 23 23 25 25 26 27 31 29 28 27
Wind_Direction
168 191 195 193 209 301 198 206 189 163 57 215 221 241 229 204 199 205 206 203 206 208 206 209 210 211 211 212 213 216 224 237 244 246 249 240 247 265 291 307 320 334 350 359
173 204 191 125 210 236 202 193 182 115 81 229 230 259 252 231 237 227 220 213 210 203 211 208 207 208 211 214 212 214 222 236 239 244 240 232 243 253 267 282 302 327 340 349
187 148 154 140 179 196 203 206 177 184 147 89 289 258 228 194 229 230 229 226 215 208 202 203 203 204 206 206 209 212 221 236 235 241 238 237 243 258 268 279 290 300 313 328
189 331 171 151 203 239 190 153 148 140 172 204 283 250 201 199 233 223 220 217 216 208 201 203 203 203 200 201 203 211 224 229 233 238 234 234 243 257 267 272 278 285 297 311
101 177 132 185 224 296 103 133 134 142 114 172 146 236 212 188 220 203 214 215 216 208 203 201 201 199 196 197 204 214 225 228 233 233 232 236 246 256 265 269 273 278 285 294
83 335 44 39 5 296 142 118 89 83 113 214 131 232 228 194 183 149 156 190 203 202 194 190 190 185 190 200 209 221 226 229 234 234 236 241 251 262 269 272 272 275 280 287
155 52 70 24 151 149 254 171 125 147 197 223 102 212 262 179 170 114 66 154 152 166 170 177 179 186 196 206 217 222 222 232 235 238 243 249 258 266 270 273 273 275 279 283
178 186 119 17 302 262 190 269 230 171 188 170 134 226 243 108 106 111 65 147 148 152 158 168 178 190 203 211 212 217 227 239 242 243 247 252 262 271 273 272 271 272 276 279
179 168 43 351 314 293 152 219 29 102 28 197 178 251 237 199 155 147 130 143 143 146 153 167 183 194 200 206 212 222 230 237 242 247 253 258 261 265 269 273 272 271 273 276
109 229 104 1 264 75 281 60 189 239 172 211 194 269 250 189 191 164 143 143 137 140 152 164 177 191 201 210 220 230 241 249 249 248 250 255 261 266 271 273 274 276 278 280
146 246 134 232 206 201 162 201 258 311 314 241 194 222 57 149 155 160 138 140 139 131 139 152 166 192 215 229 238 247 249 247 243 244 249 254 259 266 271 275 278 280 282 283
173 221 200 188 86 321 298 290 257 255 188 44 344 276 62 68 92 145 140 138 130 129 127 123 119 115 119 141 210 233 238 239 239 241 247 256 262 265 267 269 273 277 280 282
172 213 191 155 181 176 228 192 181 107 337 212 210 194 55 108 120 129 145 144 137 132 128 122 119 113 102 94 91 99 183 230 238 242 251 256 260 265 271 276 280 284 287 291
203 248 264 288 54 88 199 202 208 214 202 209 232 259 161 178 176 165 159 155 148 142 136 132 123 114 105 97 91 86 85 83 82 69 298 290 289 289 289 291 293 294 294 292
272 262 206 262 230 207 227 202 195 206 222 226 272 226 116 193 208 188 172 161 154 151 150 145 134 121 110 100 89 80 71 64 58 33 7 344 333 323 318 314 311 308 304 302
212 242 173 262 193 236 262 245 225 225 236 250 256 271 245 192 137 170 177 172 168 163 156 151 142 132 120 103 82 63 49 33 20 1 349 338 327 320 316 311 309 308 308 308
195 205 217 249 235 263 261 236 213 197 210 222 220 239 158 194 192 189 180 177 173 170 166 159 150 142 124 100 84 59 13 343 336 334 331 327 324 321 319 317 315 314 313 312
182 194 202 284 261 239 47 64 280 213 221 213 221 156 129 96 113 158 180 175 174 172 168 165 161 152 139 137 288 310 321 322 321 323 323 320 317 315 313 312 310 309 307 306
264 232 249 262 226 314 233 181 175 196 184 206 222 195 146 135 124 108 167 174 176 172 168 170 168 169 194 267 288 305 316 317 318 320 315 313 311 308 307 304 303 302 300 300
126 289 243 162 244 262 50 79 113 254 214 145 175 151 155 167 175 126 177 181 178 176 176 172 173 190 273 278 297 310 314 313 313 309 308 307 306 304 302 301 300 300 297 295
167 193 223 228 255 282 173 136 120 214 101 139 145 154 162 174 87 158 174 171 173 173 173 180 208 245 262 289 303 307 307 309 308 308 308 308 307 306 306 305 304 301 296 291
187 177 196 197 223 255 151 134 206 122 141 152 162 177 173 160 148 157 166 170 167 168 195 210 213 234 278 299 306 309 311 311 312 313 312 312 311 308 306 304 303 300 294 291
234 219 199 213 232 98 179 217 149 158 154 174 179 181 182 170 165 166 167 167 181 208 197 203 232 273 296 306 312 314 316 316 315 313 312 310 308 308 308 305 303 301 298 294
222 189 223 191 176 204 190 185 184 170 165 173 180 184 184 181 175 175 176 196 204 198 211 251 282 295 304 312 317 318 317 315 313 313 312 310 309 310 311 310 308 305 302 299
166 162 206 248 240 201 220 203 187 184 187 184 181 184 182 175 170 191 189 189 194 214 252 282 298 308 314 316 316 315 314 314 313 311 310 311 311 311 311 312 312 311 306 301
195 216 209 253 197 203 172 198 204 202 201 196 184 171 175 182 185 182 182 192 218 257 286 302 310 313 315 316 316 316 316 313 311 310 311 311 313 312 313 314 315 320 315 310
Height
1519 1518 1515 1513 1515 1513 1508 1510 1511 1517 1522 1520 1516 1520 1519 1523 1523 1525 1526 1527 1529 1531 1533 1534 1537 1539 1541 1543 1545 1548 1549 1549 1550 1550 1550 1551 1552 1552 1552 1551 1550 1549 1548 1547
1519 1516 1514 1516 1518 1518 1513 1509 1510 1522 1523 1520 1520 1515 1514 1517 1517 1518 1520 1522 1524 1527 1528 1531 1533 1535 1538 1541 1543 1545 1547 1548 1549 1549 1549 1550 1550 1551 1550 1550 1549 1548 1547 1546
1515 1515 1518 1516 1518 1517 1515 1507 1513 1511 1523 1524 1521 1509 1510 1513 1514 1515 1516 1519 1521 1523 1525 1527 1530 1533 1536 1539 1541 1543 1545 1546 1546 1547 1548 1548 1549 1549 1549 1549 1548 1547 1546 1545
1516 1519 1517 1516 1516 1516 1511 1517 1514 1517 1513 1513 1523 1508 1503 1506 1509 1512 1514 1516 1518 1520 1522 1524 1527 1530 1534 1537 1540 1542 1543 1544 1544 1545 1546 1547 1547 1548 1548 1547 1546 1545 1545 1544
1520 1519 1516 1516 1518 1520 1513 1519 1517 1518 1516 1516 1521 1521 1492 1508 1503 1506 1510 1513 1515 1517 1519 1521 1525 1528 1532 1535 1538 1539 1541 1542 1543 1544 1545 1545 1546 1546 1546 1546 1545 1545 1544 1543
1523 1523 1520 1522 1524 1522 1522 1519 1520 1520 1519 1524 1524 1523 1499 1498 1499 1505 1508 1510 1512 1514 1517 1520 1524 1527 1531 1533 1536 1538 1539 1540 1541 1542 1543 1544 1545 1545 1545 1544 1544 1543 1542 1541
1519 1521 1522 1525 1522 1523 1521 1517 1524 1527 1529 1516 1538 1532 1496 1500 1503 1505 1507 1509 1511 1512 1516 1519 1523 1526 1529 1532 1534 1536 1537 1538 1539 1540 1541 1542 1542 1542 1542 1542 1542 1541 1540 1539
1516 1523 1522 1528 1525 1517 1518 1517 1510 1518 1520 1510 1539 1515 1494 1503 1506 1507 1508 1509 1511 1513 1516 1520 1523 1526 1529 1531 1532 1534 1535 1537 1538 1538 1539 1539 1540 1540 1540 1539 1539 1538 1538 1537
1515 1518 1527 1529 1528 1526 1517 1518 1519 1520 1530 1512 1509 1504 1496 1504 1506 1507 1508 1510 1513 1515 1518 1520 1523 1525 1527 1529 1531 1532 1533 1534 1535 1536 1537 1537 1537 1537 1536 1536 1535 1535 1534 1533
1517 1518 1529 1528 1528 1527 1523 1524 1514 1516 1516 1513 1506 1509 1491 1501 1502 1507 1509 1512 1515 1516 1518 1520 1522 1524 1526 1527 1529 1530 1531 1532 1533 1533 1533 1533 1534 1534 1534 1533 1533 1532 1531 1531
1518 1520 1527 1528 1522 1515 1522 1517 1521 1516 1513 1497 1496 1493 1496 1501 1502 1505 1510 1514 1516 1517 1519 1521 1522 1523 1524 1526 1527 1528 1529 1529 1530 1530 1531 1531 1531 1531 1531 1531 1530 1529 1529 1528
1520 1517 1517 1516 1525 1526 1524 1518 1514 1506 1510 1521 1512 1495 1503 1505 1507 1508 1512 1515 1517 1518 1519 1521 1522 1523 1523 1524 1524 1525 1526 1526 1527 1528 1528 1528 1528 1528 1528 1527 1526 1525 1524 1523
1520 1514 1512 1515 1523 1525 1520 1518 1520 1521 1519 1514 1501 1488 1506 1506 1508 1510 1512 1515 1517 1519 1520 1521 1522 1522 1523 1523 1523 1523 1523 1524 1525 1526 1526 1526 1525 1526 1526 1525 1524 1523 1522 1521
1521 1516 1508 1499 1505 1511 1515 1516 1517 1511 1513 1497 1497 1485 1501 1504 1506 1510 1513 1515 1517 1519 1520 1521 1522 1523 1523 1524 1524 1524 1524 1524 1525 1525 1525 1525 1525 1524 1524 1523 1521 1519 1518 1516
1521 1511 1516 1511 1510 1513 1508 1507 1513 1516 1502 1500 1488 1495 1495 1498 1501 1506 1510 1514 1516 1518 1519 1521 1522 1523 1524 1525 1525 1525 1525 1525 1525 1525 1524 1524 1523 1522 1521 1520 1518 1516 1514 1511
1521 1512 1517 1508 1513 1513 1510 1504 1504 1503 1501 1502 1501 1500 1498 1501 1502 1505 1507 1510 1514 1516 1519 1520 1522 1523 1524 1525 1525 1525 1525 1525 1525 1524 1523 1522 1521 1519 1517 1514 1512 1510 1507 1504
1516 1514 1514 1501 1511 1508 1499 1488 1492 1495 1499 1495 1497 1489 1496 1498 1501 1503 1506 1509 1513 1515 1518 1520 1522 1523 1524 1524 1524 1524 1524 1524 1523 1522 1520 1519 1517 1514 1511 1509 1506 1503 1500 1496
1515 1513 1512 1504 1508 1502 1485 1492 1491 1490 1491 1493 1493 1494 1497 1499 1500 1501 1504 1507 1511 1514 1517 1519 1520 1521 1522 1522 1523 1523 1523 1522 1521 1519 1518 1516 1513 1509 1506 1503 1500 1497 1493 1489
1517 1513 1507 1505 1503 1485 1482 1489 1490 1487 1488 1493 1492 1495 1498 1499 1500 1503 1504 1508 1511 1513 1515 1517 1519 1520 1521 1521 1521 1521 1520 1519 1517 1515 1513 1511 1508 1504 1500 1496 1492 1489 1484 1480
1518 1517 1509 1514 1507 1489 1485 1490 1491 1491 1482 1493 1493 1495 1498 1500 1493 1500 1503 1505 1508 1511 1514 1516 1518 1518 1519 1519 1519 1518 1517 1515 1513 1511 1509 1506 1502 1497 1493 1488 1484 1480 1475 1470
1513 1513 1507 1504 1502 1489 1486 1489 1491 1489 1488 1492 1493 1495 1497 1498 1499 1500 1502 1506 1509 1511 1513 1515 1516 1517 1517 1517 1516 1515 1513 1511 1507 1504 1500 1497 1494 1489 1484 1479 1475 1470 1466 1461
1500 1503 1503 1505 1503 1496 1487 1490 1488 1488 1490 1491 1492 1494 1496 1498 1499 1500 1503 1506 1509 1511 1512 1513 1514 1514 1514 1514 1512 1511 1508 1504 1500 1496 1492 1487 1484 1481 1476 1471 1465 1461 1457 1452
1498 1490 1489 1491 1483 1485 1486 1487 1487 1487 1488 1489 1490 1491 1493 1496 1498 1500 1503 1506 1508 1509 1509 1510 1511 1512 1511 1510 1508 1504 1501 1497 1493 1489 1485 1481 1476 1472 1467 1463 1458 1453 1449 1444
1491 1490 1486 1487 1482 1483 1485 1485 1485 1486 1487 1488 1489 1490 1492 1493 1495 1498 1500 1503 1504 1506 1507 1508 1508 1508 1506 1503 1501 1498 1494 1490 1486 1481 1477 1473 1468 1463 1459 1455 1451 1446 1441 1436
1483 1487 1483 1481 1481 1482 1481 1481 1483 1483 1485 1486 1487 1489 1491 1494 1497 1499 1500 1501 1502 1503 1504 1505 1505 1503 1500 1498 1495 1492 1488 1483 1478 1474 1469 1465 1461 1457 1452 1448 1444 1439 1434 1430
1479 1475 1476 1470 1474 1476 1477 1479 1481 1482 1483 1484 1485 1488 1490 1492 1494 1496 1499 1501 1502 1501 1501 1500 1499 1497 1494 1492 1489 1485 1481 1477 1472 1467 1463 1459 1454 1450 1446 1441 1434 1432 1426 1422